When you browse on this site, cookies collect data to enhance your experience and personalize the content and advertising you see.
Visit our Privacy Policy to learn more. By continuing to use the site, you agree to this use of cookies and data.
  • în România
  • Lista ţărilor
  • Pe 7 zile
  • Temperatura apei
  • Meteo pe hartă
  • Widget-uri
  • user-avatar
    Intrare

    Meteo pe oră la Ouahigouya

    Astăzi, 20 Noiembrie, Miercuri

    Timp Temperatura Precipitaţii Vânt Presiune Umiditate
    00:00 +29°C° 0 mm 5 m/s 729 mmHg 14%
    01:00 +28°C° 0 mm 5 m/s 728 mmHg 14%
    02:00 +28°C° 0 mm 5 m/s 728 mmHg 14%
    03:00 +27°C° 0 mm 5 m/s 728 mmHg 14%
    04:00 +26°C° 0 mm 4 m/s 728 mmHg 14%
    05:00 +26°C° 0 mm 4 m/s 728 mmHg 15%
    06:00 +26°C° 0 mm 4 m/s 729 mmHg 15%
    07:00 +27°C° 0 mm 5 m/s 729 mmHg 14%
    08:00 +29°C° 0 mm 5 m/s 730 mmHg 13%
    09:00 +32°C° 0 mm 6 m/s 730 mmHg 11%
    10:00 +34°C° 0 mm 6 m/s 730 mmHg 11%
    11:00 +36°C° 0 mm 6 m/s 730 mmHg 10%
    12:00 +39°C° 0 mm 5 m/s 729 mmHg 9%
    13:00 +39°C° 0 mm 5 m/s 729 mmHg 9%
    14:00 +40°C° 0 mm 5 m/s 728 mmHg 10%
    15:00 +40°C° 0 mm 4 m/s 728 mmHg 10%
    16:00 +37°C° 0 mm 4 m/s 728 mmHg 11%
    17:00 +36°C° 0 mm 4 m/s 728 mmHg 12%
    18:00 +34°C° 0 mm 4 m/s 728 mmHg 14%
    19:00 +33°C° 0 mm 4 m/s 728 mmHg 14%
    20:00 +32°C° 0 mm 4 m/s 729 mmHg 15%
    21:00 +30°C° 0 mm 4 m/s 730 mmHg 16%
    22:00 +30°C° 0 mm 4 m/s 729 mmHg 16%
    23:00 +29°C° 0 mm 4 m/s 729 mmHg 17%

    Mâine, 21 Noiembrie, Joi

    Timp Temperatura Precipitaţii Vânt Presiune Umiditate
    00:00 +29°C° 0 mm 4 m/s 729 mmHg 17%
    01:00 +28°C° 0 mm 4 m/s 729 mmHg 18%
    02:00 +28°C° 0 mm 4 m/s 729 mmHg 20%
    03:00 +27°C° 0 mm 4 m/s 728 mmHg 21%
    04:00 +27°C° 0 mm 5 m/s 728 mmHg 22%
    05:00 +26°C° 0 mm 5 m/s 728 mmHg 22%
    06:00 +26°C° 0 mm 5 m/s 728 mmHg 23%
    07:00 +28°C° 0 mm 6 m/s 729 mmHg 21%
    08:00 +30°C° 0 mm 7 m/s 729 mmHg 18%
    09:00 +33°C° 0 mm 8 m/s 730 mmHg 16%
    10:00 +35°C° 0 mm 7 m/s 730 mmHg 15%
    11:00 +38°C° 0 mm 7 m/s 729 mmHg 14%
    12:00 +39°C° 0 mm 7 m/s 729 mmHg 13%
    13:00 +40°C° 0 mm 6 m/s 728 mmHg 13%
    14:00 +40°C° 0 mm 5 m/s 728 mmHg 12%
    15:00 +40°C° 0 mm 4 m/s 727 mmHg 12%
    16:00 +38°C° 0 mm 4 m/s 727 mmHg 13%
    17:00 +36°C° 0 mm 3 m/s 727 mmHg 15%
    18:00 +34°C° 0 mm 3 m/s 727 mmHg 16%
    19:00 +33°C° 0 mm 3 m/s 728 mmHg 17%
    20:00 +31°C° 0 mm 3 m/s 728 mmHg 18%
    21:00 +31°C° 0 mm 3 m/s 729 mmHg 18%
    22:00 +30°C° 0 mm 3 m/s 729 mmHg 19%
    23:00 +30°C° 0 mm 4 m/s 729 mmHg 19%

    Poimâine, 22 Noiembrie, Vineri

    Timp Temperatura Precipitaţii Vânt Presiune Umiditate
    00:00 +30°C° 0 mm 4 m/s 729 mmHg 20%
    01:00 +29°C° 0 mm 4 m/s 728 mmHg 22%
    02:00 +28°C° 0 mm 4 m/s 728 mmHg 23%
    03:00 +27°C° 0 mm 4 m/s 728 mmHg 25%
    04:00 +27°C° 0 mm 4 m/s 728 mmHg 26%
    05:00 +26°C° 0 mm 4 m/s 728 mmHg 28%
    06:00 +26°C° 0 mm 4 m/s 728 mmHg 29%
    07:00 +28°C° 0 mm 5 m/s 729 mmHg 26%
    08:00 +30°C° 0 mm 6 m/s 729 mmHg 23%
    09:00 +33°C° 0 mm 7 m/s 730 mmHg 19%
    10:00 +35°C° 0 mm 6 m/s 730 mmHg 17%
    11:00 +38°C° 0 mm 6 m/s 729 mmHg 15%
    12:00 +40°C° 0 mm 6 m/s 729 mmHg 13%
    13:00 +40°C° 0 mm 5 m/s 729 mmHg 13%
    14:00 +40°C° 0 mm 4 m/s 728 mmHg 12%
    15:00 +40°C° 0 mm 4 m/s 728 mmHg 12%
    16:00 +38°C° 0 mm 3 m/s 728 mmHg 13%
    17:00 +36°C° 0 mm 3 m/s 728 mmHg 15%
    18:00 +34°C° 0 mm 3 m/s 728 mmHg 16%
    19:00 +33°C° 0 mm 3 m/s 728 mmHg 17%
    20:00 +31°C° 0 mm 3 m/s 729 mmHg 18%
    21:00 +31°C° 0 mm 3 m/s 729 mmHg 18%
    22:00 +30°C° 0 mm 3 m/s 729 mmHg 19%
    23:00 +30°C° 0 mm 3 m/s 729 mmHg 20%

    23 Noiembrie, Sâmbătă

    Timp Temperatura Precipitaţii Vânt Presiune Umiditate
    00:00 +29°C° 0 mm 3 m/s 729 mmHg 20%
    01:00 +28°C° 0 mm 4 m/s 729 mmHg 21%
    02:00 +28°C° 0 mm 4 m/s 729 mmHg 22%
    03:00 +27°C° 0 mm 4 m/s 728 mmHg 24%
    04:00 +27°C° 0 mm 4 m/s 728 mmHg 23%
    05:00 +26°C° 0 mm 5 m/s 728 mmHg 22%
    06:00 +26°C° 0 mm 5 m/s 728 mmHg 21%
    07:00 +28°C° 0 mm 5 m/s 729 mmHg 19%
    08:00 +30°C° 0 mm 6 m/s 729 mmHg 16%
    09:00 +33°C° 0 mm 6 m/s 730 mmHg 14%
    10:00 +35°C° 0 mm 6 m/s 730 mmHg 13%
    11:00 +38°C° 0 mm 6 m/s 729 mmHg 12%
    12:00 +40°C° 0 mm 6 m/s 729 mmHg 11%
    13:00 +40°C° 0 mm 5 m/s 728 mmHg 11%
    14:00 +40°C° 0 mm 5 m/s 728 mmHg 11%
    15:00 +41°C° 0 mm 4 m/s 727 mmHg 12%
    16:00 +38°C° 0 mm 3 m/s 727 mmHg 13%
    17:00 +36°C° 0 mm 3 m/s 727 mmHg 14%
    18:00 +34°C° 0 mm 3 m/s 727 mmHg 16%
    19:00 +33°C° 0 mm 3 m/s 728 mmHg 17%
    20:00 +31°C° 0 mm 3 m/s 728 mmHg 17%
    21:00 +31°C° 0 mm 3 m/s 728 mmHg 18%
    22:00 +30°C° 0 mm 3 m/s 729 mmHg 18%
    23:00 +29°C° 0 mm 4 m/s 729 mmHg 18%

    24 Noiembrie, Duminică

    Timp Temperatura Precipitaţii Vânt Presiune Umiditate
    00:00 +29°C° 0 mm 4 m/s 729 mmHg 19%
    01:00 +28°C° 0 mm 4 m/s 728 mmHg 18%
    02:00 +28°C° 0 mm 4 m/s 728 mmHg 17%
    03:00 +27°C° 0 mm 4 m/s 727 mmHg 17%
    04:00 +26°C° 0 mm 4 m/s 728 mmHg 16%
    05:00 +26°C° 0 mm 4 m/s 728 mmHg 16%
    06:00 +26°C° 0 mm 4 m/s 728 mmHg 16%
    07:00 +28°C° 0 mm 4 m/s 729 mmHg 15%
    08:00 +30°C° 0 mm 5 m/s 729 mmHg 14%
    09:00 +33°C° 0 mm 5 m/s 730 mmHg 13%
    10:00 +35°C° 0 mm 5 m/s 730 mmHg 12%
    11:00 +37°C° 0 mm 5 m/s 729 mmHg 11%
    12:00 +40°C° 0 mm 5 m/s 729 mmHg 11%
    13:00 +40°C° 0 mm 5 m/s 728 mmHg 11%
    14:00 +41°C° 0 mm 4 m/s 728 mmHg 11%
    15:00 +41°C° 0 mm 4 m/s 727 mmHg 11%
    16:00 +38°C° 0 mm 3 m/s 727 mmHg 12%
    17:00 +36°C° 0 mm 3 m/s 727 mmHg 14%
    18:00 +34°C° 0 mm 3 m/s 727 mmHg 15%
    19:00 +33°C° 0 mm 3 m/s 728 mmHg 16%
    20:00 +31°C° 0 mm 3 m/s 728 mmHg 16%
    21:00 +30°C° 0 mm 3 m/s 729 mmHg 17%
    22:00 +30°C° 0 mm 3 m/s 729 mmHg 17%
    23:00 +29°C° 0 mm 3 m/s 729 mmHg 17%

    25 Noiembrie, Luni

    Timp Temperatura Precipitaţii Vânt Presiune Umiditate
    00:00 +29°C° 0 mm 4 m/s 729 mmHg 17%
    01:00 +28°C° 0 mm 4 m/s 728 mmHg 17%
    02:00 +28°C° 0 mm 4 m/s 728 mmHg 17%
    03:00 +27°C° 0 mm 4 m/s 728 mmHg 17%
    04:00 +27°C° 0 mm 4 m/s 728 mmHg 17%
    05:00 +26°C° 0 mm 4 m/s 728 mmHg 16%
    06:00 +26°C° 0 mm 4 m/s 728 mmHg 16%
    07:00 +28°C° 0 mm 5 m/s 728 mmHg 15%
    08:00 +30°C° 0 mm 5 m/s 729 mmHg 13%
    09:00 +33°C° 0 mm 6 m/s 730 mmHg 12%
    10:00 +35°C° 0 mm 6 m/s 729 mmHg 11%
    11:00 +38°C° 0 mm 6 m/s 729 mmHg 10%
    12:00 +40°C° 0 mm 6 m/s 729 mmHg 9%
    13:00 +40°C° 0 mm 6 m/s 728 mmHg 9%
    14:00 +41°C° 0 mm 5 m/s 727 mmHg 9%
    15:00 +41°C° 0 mm 5 m/s 727 mmHg 9%
    16:00 +38°C° 0 mm 4 m/s 727 mmHg 11%
    17:00 +36°C° 0 mm 3 m/s 727 mmHg 12%
    18:00 +34°C° 0 mm 3 m/s 727 mmHg 13%
    19:00 +33°C° 0 mm 3 m/s 727 mmHg 14%
    20:00 +33°C° 0 mm 3 m/s 728 mmHg 14%
    21:00 +32°C° 0 mm 4 m/s 728 mmHg 15%
    22:00 +30°C° 0 mm 4 m/s 728 mmHg 15%
    23:00 +29°C° 0 mm 4 m/s 728 mmHg 15%
    Arată mai mult